Home > Time Zones > World Clock > Weather > Norway > Ski > Past weeks

Flag for Norway Weather past 2 weeks in Ski, Norway

Now
45 °F

Passing clouds.


Feels Like: 41 °F
Forecast: 43 / 52 °F
Wind: 6 mph from Southwest

Location: Oslo / Fornebu

Current Time: May 30, 2015 at 1:23:22 AM

Latest Report: May 30, 2015 at 12:50 AM


Visibility: N/A

Pressure: 29.53 "Hg

Humidity: 81%

Dew point: 39 °F

Location of SkiLocation

Historic Weather in Ski — Graph

°F

Ski temperature yesterday

Maximum temperature yesterday: 52 °F (at 12:20 PM)
Minimum temperature yesterday: 43 °F (at 6:50 AM)
Average temperature yesterday: 47 °F

Past Weeks' High & Low Weather Summary

 TemperatureHumidityPressure
High54 °F (May 20, 9:20 AM)100% (May 16, 3:20 AM)30.07 "Hg (May 16, 3:20 AM)
Low41 °F (May 14, 11:20 PM)54% (May 19, 9:20 AM)29.30 "Hg (May 19, 8:20 AM)
Average46 °F77%29.63 "Hg
* Reported May 14 11:20 PM — May 29 11:50 PM, Ski, Weather by CustomWeather, © 2015

Note: Actual official high and low records may vary slightly from our data, if they occured in-between our weather recording intervals... More about our weather records

Advertising

Ski weather history for previous 24 hours

 ConditionsComfort  
Time TempWeatherWind HumidityBarometerVisibility
11:50 PM
Fri, May 29
45 °FPassing clouds.3 mph81%29.53 "HgN/A
11:20 PM45 °FPassing clouds.7 mph81%29.50 "HgN/A
10:50 PM46 °FPassing clouds.7 mph76%29.50 "HgN/A
10:20 PM45 °FPassing clouds.8 mph81%29.50 "HgN/A
9:50 PM46 °FCool.9 mph71%29.50 "HgN/A
9:20 PM46 °FCool.8 mph71%29.50 "HgN/A
8:50 PM46 °FPassing clouds.13 mph76%29.47 "HgN/A
8:20 PM46 °FScattered clouds.10 mph76%29.47 "HgN/A
7:50 PM48 °FPassing clouds.9 mph71%29.47 "HgN/A
7:20 PM50 °FPassing clouds.9 mph67%29.47 "HgN/A
6:50 PM48 °FCool.8 mph66%29.47 "HgN/A
6:20 PM50 °FPassing clouds.7 mph67%29.47 "HgN/A
5:50 PM48 °FPartly sunny.8 mph71%29.47 "HgN/A
5:20 PM48 °FPassing clouds.7 mph71%29.47 "HgN/A
4:50 PM46 °FCool.8 mph76%29.47 "HgN/A
4:20 PM50 °FPassing clouds.8 mph67%29.47 "HgN/A
3:50 PM48 °FPartly sunny.7 mph71%29.45 "HgN/A
3:20 PM48 °FPartly sunny.9 mph71%29.45 "HgN/A
2:50 PM48 °FPassing clouds.8 mph71%29.45 "HgN/A
2:20 PM48 °FScattered clouds.9 mph71%29.45 "HgN/A
1:50 PM50 °FScattered clouds.10 mph71%29.45 "HgN/A
1:20 PM50 °FScattered clouds.12 mph71%29.45 "HgN/A
12:50 PM48 °FScattered clouds.10 mph76%29.45 "HgN/A
12:20 PM52 °FPassing clouds.12 mph67%29.45 "HgN/A
11:50 AM50 °FPassing clouds.12 mph67%29.45 "HgN/A
11:20 AM48 °FBroken clouds.14 mph71%29.45 "HgN/A
10:50 AM46 °FPartly sunny.13 mph82%29.45 "HgN/A
10:20 AM46 °FSprinkles. Partly sunny.12 mph82%29.45 "HgN/A
9:50 AM46 °FPartly sunny.9 mph76%29.45 "HgN/A
9:20 AM46 °FSprinkles. Partly sunny.12 mph76%29.42 "HgN/A
8:50 AM46 °FCool.9 mph76%29.42 "HgN/A
8:20 AM45 °FScattered clouds.7 mph81%29.42 "HgN/A
7:50 AM45 °FSprinkles. Partly sunny.12 mph76%29.42 "HgN/A
7:20 AM46 °FPassing clouds.8 mph76%29.42 "HgN/A
6:50 AM43 °FLight rain. Partly sunny.18 mph81%29.45 "HgN/A
6:20 AM46 °FScattered clouds.10 mph76%29.42 "HgN/A
5:50 AM45 °FPartly sunny.10 mph81%29.42 "HgN/A
5:20 AM45 °FQuite cool.14 mph81%29.42 "HgN/A
4:50 AM45 °FQuite cool.14 mph81%29.42 "HgN/A
4:20 AM45 °FPassing clouds.12 mph81%29.45 "HgN/A
3:50 AM45 °FPartly cloudy.8 mph81%29.45 "HgN/A
3:20 AM45 °FPassing clouds.10 mph81%29.45 "HgN/A
2:50 AM45 °FPassing clouds.15 mph81%29.45 "HgN/A
2:20 AM46 °FPassing clouds.13 mph76%29.45 "HgN/A
1:50 AM46 °FPassing clouds.14 mph76%29.45 "HgN/A
1:20 AM46 °FPassing clouds.16 mph76%29.45 "HgN/A
Weather by CustomWeather, © 2015

See weather overviewHow to use our weather pages